Previsão horária em Centerville

Hoje, 25 Julho, Domingo

Tempo Temperatura Precipitação Vento Pressão Humidade
00:00 +22°C° 0 mm 3 m/s 733 mmHg 96%
01:00 +22°C° 0.4 mm 3 m/s 733 mmHg 96%
02:00 +22°C° 0.4 mm 3 m/s 733 mmHg 97%
03:00 +24°C° 0.4 mm 3 m/s 732 mmHg 97%
04:00 +24°C° 0.1 mm 3 m/s 733 mmHg 97%
05:00 +24°C° 0.1 mm 3 m/s 733 mmHg 97%
06:00 +24°C° 0.1 mm 2 m/s 733 mmHg 96%
07:00 +25°C° 0 mm 2 m/s 733 mmHg 91%
08:00 +27°C° 0 mm 2 m/s 734 mmHg 86%
09:00 +28°C° 0 mm 2 m/s 734 mmHg 81%
10:00 +29°C° 0 mm 2 m/s 734 mmHg 75%
11:00 +30°C° 0 mm 2 m/s 734 mmHg 69%
12:00 +31°C° 0 mm 2 m/s 734 mmHg 63%
13:00 +31°C° 0.1 mm 3 m/s 734 mmHg 63%
14:00 +31°C° 0.1 mm 3 m/s 734 mmHg 63%
15:00 +31°C° 0.1 mm 3 m/s 734 mmHg 63%
16:00 +30°C° 0.1 mm 3 m/s 733 mmHg 69%
17:00 +29°C° 0.1 mm 2 m/s 733 mmHg 74%
18:00 +28°C° 0.1 mm 2 m/s 733 mmHg 80%
19:00 +26°C° 0 mm 2 m/s 733 mmHg 81%
20:00 +25°C° 0 mm 2 m/s 734 mmHg 83%
21:00 +24°C° 0 mm 2 m/s 734 mmHg 84%
22:00 +23°C° 0 mm 2 m/s 734 mmHg 85%
23:00 +23°C° 0 mm 2 m/s 734 mmHg 87%

Amanhã, 26 Julho, Segunda-feira

Tempo Temperatura Precipitação Vento Pressão Humidade
00:00 +21°C° 0 mm 2 m/s 734 mmHg 88%
01:00 +21°C° 0 mm 2 m/s 734 mmHg 87%
02:00 +20°C° 0 mm 2 m/s 734 mmHg 86%
03:00 +20°C° 0 mm 2 m/s 734 mmHg 84%
04:00 +20°C° 0 mm 2 m/s 734 mmHg 84%
05:00 +20°C° 0 mm 2 m/s 735 mmHg 83%
06:00 +20°C° 0 mm 2 m/s 735 mmHg 82%
07:00 +23°C° 0 mm 2 m/s 735 mmHg 76%
08:00 +25°C° 0 mm 2 m/s 736 mmHg 70%
09:00 +27°C° 0 mm 2 m/s 736 mmHg 64%
10:00 +28°C° 0 mm 2 m/s 736 mmHg 60%
11:00 +29°C° 0 mm 2 m/s 736 mmHg 56%
12:00 +30°C° 0 mm 2 m/s 736 mmHg 52%
13:00 +30°C° 0 mm 3 m/s 736 mmHg 52%
14:00 +30°C° 0 mm 3 m/s 736 mmHg 52%
15:00 +30°C° 0 mm 3 m/s 735 mmHg 53%
16:00 +28°C° 0 mm 3 m/s 735 mmHg 60%
17:00 +27°C° 0 mm 3 m/s 735 mmHg 67%
18:00 +25°C° 0 mm 2 m/s 735 mmHg 74%
19:00 +24°C° 0 mm 2 m/s 735 mmHg 77%
20:00 +23°C° 0 mm 2 m/s 736 mmHg 80%
21:00 +20°C° 0 mm 2 m/s 736 mmHg 83%
22:00 +20°C° 0 mm 2 m/s 736 mmHg 84%
23:00 +19°C° 0 mm 2 m/s 736 mmHg 86%

Depois de amanhã, 27 Julho, Terça-feira

Tempo Temperatura Precipitação Vento Pressão Humidade
00:00 +20°C° 0 mm 1 m/s 736 mmHg 87%
01:00 +19°C° 0 mm 1 m/s 736 mmHg 88%
02:00 +19°C° 0 mm 1 m/s 736 mmHg 88%
03:00 +19°C° 0 mm 1 m/s 736 mmHg 89%
04:00 +20°C° 0 mm 1 m/s 736 mmHg 87%
05:00 +20°C° 0 mm 1 m/s 737 mmHg 85%
06:00 +21°C° 0 mm 1 m/s 737 mmHg 83%
07:00 +23°C° 0 mm 1 m/s 737 mmHg 77%
08:00 +25°C° 0 mm 1 m/s 737 mmHg 71%
09:00 +27°C° 0 mm 1 m/s 738 mmHg 64%
10:00 +28°C° 0 mm 1 m/s 738 mmHg 61%
11:00 +30°C° 0 mm 1 m/s 737 mmHg 57%
12:00 +31°C° 0 mm 1 m/s 737 mmHg 53%
13:00 +31°C° 0 mm 1 m/s 737 mmHg 53%
14:00 +31°C° 0 mm 1 m/s 737 mmHg 53%
15:00 +31°C° 0 mm 1 m/s 737 mmHg 52%
16:00 +30°C° 0 mm 1 m/s 737 mmHg 59%
17:00 +29°C° 0 mm 1 m/s 737 mmHg 65%
18:00 +28°C° 0 mm 1 m/s 736 mmHg 71%
19:00 +26°C° 0 mm 1 m/s 736 mmHg 73%
20:00 +25°C° 0 mm 1 m/s 736 mmHg 74%
21:00 +23°C° 0 mm 1 m/s 736 mmHg 76%
22:00 +23°C° 0 mm 1 m/s 736 mmHg 76%
23:00 +22°C° 0 mm 1 m/s 736 mmHg 77%

28 Julho, Quarta-feira

Tempo Temperatura Precipitação Vento Pressão Humidade
00:00 +22°C° 0 mm 1 m/s 736 mmHg 78%
01:00 +21°C° 0 mm 1 m/s 736 mmHg 79%
02:00 +21°C° 0 mm 1 m/s 737 mmHg 81%
03:00 +18°C° 0 mm 0 m/s 737 mmHg 82%
04:00 +19°C° 0 mm 0 m/s 737 mmHg 81%
05:00 +20°C° 0 mm 0 m/s 737 mmHg 80%
06:00 +21°C° 0 mm 0 m/s 738 mmHg 79%
07:00 +23°C° 0 mm 0 m/s 738 mmHg 74%
08:00 +24°C° 0 mm 0 m/s 738 mmHg 69%
09:00 +26°C° 0 mm 0 m/s 738 mmHg 64%
10:00 +29°C° 0 mm 1 m/s 738 mmHg 61%
11:00 +30°C° 0 mm 1 m/s 738 mmHg 58%
12:00 +31°C° 0 mm 2 m/s 737 mmHg 55%
13:00 +31°C° 0 mm 2 m/s 737 mmHg 55%
14:00 +33°C° 0 mm 3 m/s 737 mmHg 55%
15:00 +33°C° 0 mm 3 m/s 736 mmHg 55%
16:00 +31°C° 0 mm 3 m/s 736 mmHg 62%
17:00 +29°C° 0 mm 2 m/s 736 mmHg 69%
18:00 +28°C° 0 mm 2 m/s 735 mmHg 76%
19:00 +27°C° 0 mm 2 m/s 735 mmHg 80%
20:00 +25°C° 0 mm 2 m/s 735 mmHg 83%
21:00 +24°C° 0 mm 2 m/s 735 mmHg 87%
22:00 +24°C° 0 mm 2 m/s 735 mmHg 88%
23:00 +23°C° 0 mm 2 m/s 734 mmHg 90%

29 Julho, Quinta-feira

Tempo Temperatura Precipitação Vento Pressão Humidade
00:00 +22°C° 0 mm 3 m/s 734 mmHg 91%
01:00 +22°C° 0 mm 3 m/s 734 mmHg 91%
02:00 +22°C° 0 mm 3 m/s 734 mmHg 91%
03:00 +21°C° 0 mm 3 m/s 734 mmHg 91%
04:00 +22°C° 0 mm 3 m/s 734 mmHg 90%
05:00 +22°C° 0 mm 4 m/s 734 mmHg 89%
06:00 +22°C° 0 mm 4 m/s 734 mmHg 88%
07:00 +25°C° 0 mm 5 m/s 734 mmHg 83%
08:00 +27°C° 0 mm 6 m/s 734 mmHg 77%
09:00 +29°C° 0 mm 7 m/s 734 mmHg 72%
10:00 +30°C° 0 mm 7 m/s 734 mmHg 70%
11:00 +32°C° 0 mm 7 m/s 734 mmHg 68%
12:00 +33°C° 0 mm 7 m/s 734 mmHg 66%
13:00 +32°C° 1.7 mm 8 m/s 733 mmHg 73%
14:00 +31°C° 1.7 mm 8 m/s 733 mmHg 79%
15:00 +29°C° 1.7 mm 8 m/s 732 mmHg 85%
16:00 +28°C° 1.3 mm 7 m/s 733 mmHg 87%
17:00 +27°C° 1.3 mm 6 m/s 733 mmHg 88%
18:00 +25°C° 1.3 mm 5 m/s 734 mmHg 90%
19:00 +23°C° 0.1 mm 4 m/s 734 mmHg 91%
20:00 +22°C° 0.1 mm 3 m/s 734 mmHg 93%
21:00 +21°C° 0.1 mm 3 m/s 735 mmHg 94%
22:00 +20°C° 0 mm 2 m/s 735 mmHg 94%
23:00 +20°C° 0 mm 2 m/s 735 mmHg 95%

30 Julho, Sexta-feira

Tempo Temperatura Precipitação Vento Pressão Humidade
00:00 +19°C° 0 mm 2 m/s 735 mmHg 96%
01:00 +19°C° 0 mm 2 m/s 735 mmHg 96%
02:00 +18°C° 0 mm 2 m/s 735 mmHg 96%
03:00 +18°C° 0 mm 2 m/s 736 mmHg 97%
04:00 +18°C° 0 mm 2 m/s 736 mmHg 96%
05:00 +18°C° 0 mm 2 m/s 736 mmHg 95%
06:00 +18°C° 0 mm 2 m/s 737 mmHg 94%
07:00 +20°C° 0 mm 2 m/s 737 mmHg 89%
08:00 +21°C° 0 mm 3 m/s 737 mmHg 84%
09:00 +22°C° 0 mm 3 m/s 737 mmHg 79%
10:00 +24°C° 0 mm 3 m/s 737 mmHg 73%
11:00 +25°C° 0 mm 3 m/s 737 mmHg 67%
12:00 +26°C° 0 mm 3 m/s 737 mmHg 61%
13:00 +26°C° 0 mm 3 m/s 737 mmHg 60%
14:00 +27°C° 0 mm 3 m/s 737 mmHg 59%
15:00 +27°C° 0 mm 3 m/s 737 mmHg 58%
16:00 +25°C° 0 mm 3 m/s 737 mmHg 65%
17:00 +24°C° 0 mm 3 m/s 737 mmHg 72%
18:00 +22°C° 0 mm 3 m/s 737 mmHg 78%
19:00 +20°C° 0 mm 3 m/s 737 mmHg 82%
20:00 +19°C° 0 mm 3 m/s 737 mmHg 85%
21:00 +17°C° 0 mm 3 m/s 737 mmHg 88%
22:00 +17°C° 0 mm 3 m/s 737 mmHg 88%
23:00 +16°C° 0 mm 2 m/s 737 mmHg 88%
Mostrar mais

Necessitamos do seu Consentimento

A Meteoprog e os seus Fornecedores de Serviços podem armazenar e aceder a dados pessoais como cookies, identificadores do dispositivo ou outras tecnologias semelhantes existentes no seu dispositivo e processar estes dados para personalizar conteúdos e anúncios, assim como funcionalidades nas redes sociais e análise de tráfego.

  • Armazenar e/ou aceder a informações no seu dispositivo

    Os cookies, identificadores do dispositivo ou outras informações podem ser armazenados ou acedidos no seu dispositivo, para os fins acima indicados.

  • Anúncios e conteúdos personalizados, medição de anúncios e conteúdos, dados sobre o público-alvo e desenvolvimento de produtos

    Os anúncios e os conteúdos podem ser personalizados com base num perfil. Podem ser adicionados dados adicionais para uma maior personalização dos anúncios e dos conteúdos. A eficácia dos anúncios e dos conteúdos pode ser medida. Podem ser obtidas informações sobre o público que visualizou os anúncios e os conteúdos. Estes dados podem ser usados para desenvolver ou melhorar sistemas, softwares ou a experiência do utilizador.

Ao clicar em "Eu concordo”, permitirá o uso de cookies, identificadores do dispositivo e web beacons mencionados ou outras tecnologias semelhantes. As configurações do navegador do seu dispositivo podem ser alteradas.

Para certos fins, podem ser invocados interesses legítimos ao invés de consentimento. Pode ler mais informação sobre este assunto na nossa Política de Privacidade e Cookies.